When you browse on this site, cookies collect data to enhance your experience and personalize the content and advertising you see.
Visit our Privacy Policy to learn more. By continuing to use the site, you agree to this use of cookies and data.
  • In France
  • List of Countries
  • For 7 days
  • Water Temperature
  • Satellite Maps
  • Weather Map
  • Weather Widgets
  • user-avatar
    Login

    Hourly Weather Kabul

    Today, 19 April, Friday

    Time Temperature Precipitation Wind Pressure Humidity
    00:00 +14°C° 0 mm 1 mps 611 mmHg 46%
    01:00 +14°C° 0 mm 2 mps 610 mmHg 45%
    02:00 +13°C° 0 mm 2 mps 610 mmHg 43%
    03:00 +13°C° 0 mm 2 mps 610 mmHg 42%
    04:00 +12°C° 0 mm 2 mps 609 mmHg 41%
    05:00 +13°C° 0 mm 2 mps 609 mmHg 39%
    06:00 +14°C° 0 mm 2 mps 609 mmHg 36%
    07:00 +15°C° 0 mm 2 mps 610 mmHg 33%
    08:00 +16°C° 0 mm 2 mps 610 mmHg 31%
    09:00 +18°C° 0 mm 2 mps 611 mmHg 27%
    10:00 +19°C° 0 mm 2 mps 611 mmHg 24%
    11:00 +22°C° 0 mm 1 mps 612 mmHg 22%
    12:00 +23°C° 0 mm 1 mps 612 mmHg 21%
    13:00 +23°C° 0 mm 1 mps 612 mmHg 20%
    14:00 +24°C° 0 mm 1 mps 612 mmHg 19%
    15:00 +24°C° 0 mm 2 mps 612 mmHg 20%
    16:00 +24°C° 0 mm 2 mps 611 mmHg 20%
    17:00 +24°C° 0 mm 2 mps 611 mmHg 21%
    18:00 +23°C° 0 mm 2 mps 611 mmHg 25%
    19:00 +20°C° 0 mm 2 mps 611 mmHg 29%
    20:00 +19°C° 0 mm 2 mps 611 mmHg 32%
    21:00 +19°C° 0 mm 2 mps 611 mmHg 35%
    22:00 +19°C° 0 mm 1 mps 611 mmHg 37%
    23:00 +18°C° 0 mm 1 mps 611 mmHg 40%

    Tomorrow, 20 April, Saturday

    Time Temperature Precipitation Wind Pressure Humidity
    00:00 +18°C° 0 mm 1 mps 610 mmHg 42%
    01:00 +16°C° 0 mm 1 mps 610 mmHg 44%
    02:00 +16°C° 0 mm 1 mps 610 mmHg 46%
    03:00 +15°C° 0 mm 1 mps 609 mmHg 47%
    04:00 +15°C° 0 mm 1 mps 609 mmHg 48%
    05:00 +14°C° 0 mm 1 mps 609 mmHg 49%
    06:00 +15°C° 0 mm 1 mps 609 mmHg 46%
    07:00 +16°C° 0 mm 2 mps 609 mmHg 42%
    08:00 +17°C° 0 mm 2 mps 610 mmHg 38%
    09:00 +18°C° 0 mm 2 mps 610 mmHg 35%
    10:00 +20°C° 0 mm 1 mps 610 mmHg 32%
    11:00 +22°C° 0 mm 1 mps 610 mmHg 29%
    12:00 +22°C° 0 mm 1 mps 610 mmHg 27%
    13:00 +23°C° 0 mm 1 mps 610 mmHg 25%
    14:00 +24°C° 0 mm 1 mps 610 mmHg 23%
    15:00 +24°C° 0 mm 2 mps 610 mmHg 23%
    16:00 +24°C° 0 mm 2 mps 610 mmHg 23%
    17:00 +24°C° 0 mm 3 mps 610 mmHg 23%
    18:00 +23°C° 0 mm 2 mps 609 mmHg 28%
    19:00 +20°C° 0 mm 2 mps 609 mmHg 32%
    20:00 +19°C° 0 mm 2 mps 609 mmHg 36%
    21:00 +18°C° 0 mm 2 mps 609 mmHg 39%
    22:00 +18°C° 0 mm 2 mps 610 mmHg 41%
    23:00 +18°C° 0 mm 1 mps 610 mmHg 44%

    Day after tomorrow, 21 April, Sunday

    Time Temperature Precipitation Wind Pressure Humidity
    00:00 +18°C° 0 mm 1 mps 609 mmHg 46%
    01:00 +16°C° 0 mm 1 mps 609 mmHg 47%
    02:00 +16°C° 0 mm 1 mps 609 mmHg 48%
    03:00 +15°C° 0 mm 1 mps 608 mmHg 51%
    04:00 +13°C° 0 mm 0 mps 608 mmHg 53%
    05:00 +13°C° 0 mm 0 mps 608 mmHg 55%
    06:00 +14°C° 0 mm 0 mps 608 mmHg 50%
    07:00 +16°C° 0 mm 1 mps 609 mmHg 44%
    08:00 +18°C° 0 mm 1 mps 609 mmHg 39%
    09:00 +19°C° 0 mm 1 mps 610 mmHg 36%
    10:00 +20°C° 0 mm 1 mps 610 mmHg 33%
    11:00 +21°C° 0 mm 1 mps 610 mmHg 30%
    12:00 +22°C° 0 mm 1 mps 610 mmHg 29%
    13:00 +23°C° 0 mm 2 mps 611 mmHg 27%
    14:00 +24°C° 0 mm 2 mps 611 mmHg 25%
    15:00 +24°C° 0 mm 2 mps 610 mmHg 25%
    16:00 +24°C° 0 mm 2 mps 610 mmHg 25%
    17:00 +24°C° 0 mm 2 mps 610 mmHg 25%
    18:00 +23°C° 0 mm 2 mps 610 mmHg 29%
    19:00 +20°C° 0 mm 2 mps 610 mmHg 33%
    20:00 +19°C° 0 mm 2 mps 610 mmHg 36%
    21:00 +19°C° 0 mm 2 mps 610 mmHg 38%
    22:00 +18°C° 0 mm 2 mps 610 mmHg 40%
    23:00 +17°C° 0 mm 2 mps 610 mmHg 42%

    22 April, Monday

    Time Temperature Precipitation Wind Pressure Humidity
    00:00 +18°C° 0 mm 1 mps 610 mmHg 42%
    01:00 +16°C° 0 mm 1 mps 609 mmHg 43%
    02:00 +15°C° 0 mm 1 mps 609 mmHg 43%
    03:00 +15°C° 0 mm 1 mps 609 mmHg 44%
    04:00 +14°C° 0 mm 1 mps 608 mmHg 44%
    05:00 +13°C° 0 mm 0 mps 608 mmHg 45%
    06:00 +14°C° 0 mm 0 mps 609 mmHg 40%
    07:00 +15°C° 0 mm 0 mps 609 mmHg 35%
    08:00 +16°C° 0 mm 0 mps 610 mmHg 30%
    09:00 +19°C° 0 mm 1 mps 611 mmHg 29%
    10:00 +21°C° 0 mm 1 mps 611 mmHg 27%
    11:00 +22°C° 0 mm 1 mps 612 mmHg 26%
    12:00 +23°C° 0 mm 2 mps 612 mmHg 25%
    13:00 +24°C° 0 mm 2 mps 612 mmHg 23%
    14:00 +24°C° 0 mm 2 mps 612 mmHg 22%
    15:00 +25°C° 0 mm 2 mps 611 mmHg 21%
    16:00 +25°C° 0 mm 3 mps 611 mmHg 21%
    17:00 +25°C° 0 mm 3 mps 611 mmHg 20%
    18:00 +24°C° 0 mm 2 mps 611 mmHg 24%
    19:00 +21°C° 0 mm 2 mps 611 mmHg 28%
    20:00 +20°C° 0 mm 2 mps 611 mmHg 31%
    21:00 +20°C° 0 mm 1 mps 611 mmHg 33%
    22:00 +19°C° 0 mm 1 mps 611 mmHg 35%
    23:00 +19°C° 0 mm 1 mps 611 mmHg 37%

    23 April, Tuesday

    Time Temperature Precipitation Wind Pressure Humidity
    00:00 +18°C° 0 mm 1 mps 611 mmHg 38%
    01:00 +18°C° 0 mm 1 mps 610 mmHg 38%
    02:00 +16°C° 0 mm 1 mps 610 mmHg 39%
    03:00 +16°C° 0 mm 1 mps 609 mmHg 39%
    04:00 +16°C° 0 mm 1 mps 609 mmHg 40%
    05:00 +14°C° 0 mm 0 mps 609 mmHg 41%
    06:00 +16°C° 0 mm 1 mps 610 mmHg 37%
    07:00 +18°C° 0 mm 1 mps 610 mmHg 33%
    08:00 +19°C° 0 mm 1 mps 611 mmHg 29%
    09:00 +20°C° 0 mm 1 mps 611 mmHg 27%
    10:00 +19°C° 0 mm 2 mps 611 mmHg 25%
    11:00 +20°C° 0 mm 2 mps 612 mmHg 23%
    12:00 +21°C° 0 mm 2 mps 612 mmHg 23%
    13:00 +23°C° 0 mm 2 mps 611 mmHg 23%
    14:00 +24°C° 0 mm 2 mps 611 mmHg 23%
    15:00 +24°C° 0.1 mm 2 mps 611 mmHg 25%
    16:00 +24°C° 0.1 mm 2 mps 610 mmHg 26%
    17:00 +23°C° 0.1 mm 2 mps 610 mmHg 27%
    18:00 +21°C° 0.2 mm 3 mps 610 mmHg 31%
    19:00 +20°C° 0.2 mm 3 mps 610 mmHg 35%
    20:00 +19°C° 0.2 mm 3 mps 610 mmHg 38%
    21:00 +18°C° 0 mm 3 mps 610 mmHg 41%
    22:00 +17°C° 0 mm 3 mps 610 mmHg 44%
    23:00 +16°C° 0 mm 2 mps 610 mmHg 46%

    24 April, Wednesday

    Time Temperature Precipitation Wind Pressure Humidity
    00:00 +16°C° 0 mm 2 mps 609 mmHg 47%
    01:00 +15°C° 0 mm 2 mps 609 mmHg 48%
    02:00 +15°C° 0 mm 2 mps 608 mmHg 49%
    03:00 +14°C° 0.1 mm 2 mps 608 mmHg 50%
    04:00 +14°C° 0.1 mm 2 mps 608 mmHg 51%
    05:00 +13°C° 0.1 mm 2 mps 608 mmHg 51%
    06:00 +13°C° 0.4 mm 2 mps 608 mmHg 53%
    07:00 +13°C° 0.4 mm 2 mps 609 mmHg 55%
    08:00 +13°C° 0.4 mm 2 mps 609 mmHg 57%
    09:00 +14°C° 0.4 mm 2 mps 609 mmHg 57%
    10:00 +14°C° 0.4 mm 2 mps 609 mmHg 57%
    11:00 +13°C° 0.4 mm 3 mps 609 mmHg 56%
    12:00 +14°C° 2.2 mm 2 mps 609 mmHg 61%
    13:00 +13°C° 2.2 mm 1 mps 608 mmHg 66%
    14:00 +12°C° 2.2 mm 1 mps 608 mmHg 71%
    15:00 +13°C° 0 mm 1 mps 608 mmHg 68%
    16:00 +14°C° 0 mm 2 mps 608 mmHg 66%
    17:00 +15°C° 0 mm 2 mps 609 mmHg 63%
    18:00 +14°C° 0.1 mm 2 mps 609 mmHg 65%
    19:00 +13°C° 0.1 mm 3 mps 609 mmHg 66%
    20:00 +12°C° 0.1 mm 3 mps 609 mmHg 68%
    21:00 +13°C° 0.2 mm 2 mps 609 mmHg 69%
    22:00 +12°C° 0.2 mm 2 mps 609 mmHg 70%
    23:00 +12°C° 0.2 mm 2 mps 609 mmHg 71%
    Show more